TimeCDT,TemperatureF,Dew PointF,Humidity,Sea Level PressureIn,VisibilityMPH,Wind Direction,Wind SpeedMPH,Gust SpeedMPH,PrecipitationIn,Events,Conditions,WindDirDegrees,DateUTC
12:15 AM,74.3,54.9,51,30.09,10.0,SE,6.9,-,N/A,,Clear,140,2013-08-25 05:15:00
12:35 AM,73.8,54.5,51,30.09,10.0,ESE,5.8,-,N/A,,Clear,120,2013-08-25 05:35:00
12:55 AM,73.6,54.9,52,30.10,10.0,East,9.2,-,N/A,,Clear,90,2013-08-25 05:55:00
1:15 AM,72.9,54.1,52,30.10,10.0,East,4.6,-,N/A,,Clear,100,2013-08-25 06:15:00
1:35 AM,72.5,54.0,52,30.10,10.0,SE,3.5,-,N/A,,Clear,140,2013-08-25 06:35:00
1:55 AM,71.1,55.4,58,30.10,10.0,SSW,3.5,-,N/A,,Clear,210,2013-08-25 06:55:00
2:15 AM,71.4,55.4,57,30.10,10.0,Calm,Calm,-,N/A,,Clear,0,2013-08-25 07:15:00
2:35 AM,68.9,56.7,65,30.10,10.0,Calm,Calm,-,N/A,,Clear,0,2013-08-25 07:35:00
2:55 AM,70.5,56.7,61,30.10,10.0,Calm,Calm,-,N/A,,Clear,0,2013-08-25 07:55:00
3:15 AM,70.2,56.3,61,30.11,10.0,Calm,Calm,-,N/A,,Clear,0,2013-08-25 08:15:00
3:35 AM,71.6,55.6,57,30.11,10.0,Calm,Calm,-,N/A,,Clear,0,2013-08-25 08:35:00
3:55 AM,70.3,55.4,59,30.10,10.0,SSE,5.8,-,N/A,,Clear,150,2013-08-25 08:55:00
4:15 AM,69.4,55.6,61,30.10,10.0,Calm,Calm,-,N/A,,Clear,0,2013-08-25 09:15:00
4:35 AM,70.7,55.6,59,30.10,10.0,Calm,Calm,-,N/A,,Clear,0,2013-08-25 09:35:00
4:55 AM,68.5,55.8,64,30.10,10.0,ENE,4.6,-,N/A,,Clear,60,2013-08-25 09:55:00
5:15 AM,67.5,55.8,66,30.11,10.0,NE,3.5,-,N/A,,Clear,50,2013-08-25 10:15:00
5:35 AM,67.5,55.6,66,30.11,10.0,ENE,4.6,-,N/A,,Clear,70,2013-08-25 10:35:00
5:55 AM,68.0,56.3,66,30.12,10.0,Calm,Calm,-,N/A,,Clear,0,2013-08-25 10:55:00
6:15 AM,67.6,56.3,67,30.12,10.0,East,4.6,-,N/A,,Clear,90,2013-08-25 11:15:00
6:35 AM,67.1,56.3,68,30.13,10.0,East,3.5,-,N/A,,Clear,100,2013-08-25 11:35:00
6:55 AM,66.0,56.5,71,30.14,10.0,Calm,Calm,-,N/A,,Clear,0,2013-08-25 11:55:00
7:15 AM,66.6,56.7,70,30.14,10.0,Calm,Calm,-,N/A,,Clear,0,2013-08-25 12:15:00
7:35 AM,65.1,56.7,74,30.16,10.0,ENE,8.1,-,N/A,,Clear,70,2013-08-25 12:35:00
7:55 AM,67.1,58.1,73,30.16,10.0,ENE,9.2,-,N/A,,Clear,70,2013-08-25 12:55:00
8:15 AM,69.8,59.0,68,30.16,10.0,ENE,8.1,-,N/A,,Clear,70,2013-08-25 13:15:00
8:35 AM,71.4,59.4,66,30.16,10.0,East,5.8,-,N/A,,Clear,80,2013-08-25 13:35:00
8:55 AM,74.5,59.9,60,30.17,10.0,East,8.1,-,N/A,,Clear,90,2013-08-25 13:55:00
9:15 AM,74.3,59.5,60,30.17,10.0,East,5.8,-,N/A,,Clear,100,2013-08-25 14:15:00
9:35 AM,76.3,59.7,56,30.18,10.0,ESE,5.8,-,N/A,,Clear,110,2013-08-25 14:35:00
9:55 AM,79.7,59.7,50,30.18,10.0,ESE,4.6,-,N/A,,Clear,120,2013-08-25 14:55:00
10:15 AM,81.3,59.4,47,30.18,10.0,SE,4.6,-,N/A,,Clear,130,2013-08-25 15:15:00
10:35 AM,82.2,59.4,46,30.19,10.0,SSE,6.9,-,N/A,,Clear,150,2013-08-25 15:35:00
10:55 AM,84.2,59.2,43,30.18,10.0,East,3.5,-,N/A,,Clear,100,2013-08-25 15:55:00
11:15 AM,87.1,58.8,38,30.18,10.0,East,8.1,-,N/A,,Clear,100,2013-08-25 16:15:00
11:35 AM,88.9,58.6,36,30.17,10.0,SE,9.2,16.1,N/A,,Clear,140,2013-08-25 16:35:00
11:55 AM,90.0,58.3,34,30.17,10.0,ESE,15.0,18.4,N/A,,Clear,120,2013-08-25 16:55:00
12:15 PM,91.0,57.7,32,30.16,10.0,East,10.4,18.4,N/A,,Scattered Clouds,100,2013-08-25 17:15:00
12:35 PM,91.0,57.9,33,30.16,10.0,SE,11.5,16.1,N/A,,Clear,140,2013-08-25 17:35:00
12:55 PM,92.3,57.9,31,30.15,10.0,ESE,9.2,18.4,N/A,,Clear,120,2013-08-25 17:55:00
1:15 PM,92.3,58.1,32,30.14,10.0,ESE,15.0,19.6,N/A,,Scattered Clouds,110,2013-08-25 18:15:00
1:35 PM,91.6,58.1,32,30.13,10.0,East,12.7,16.1,N/A,,Scattered Clouds,100,2013-08-25 18:35:00
1:55 PM,93.0,57.9,31,30.12,10.0,ESE,13.8,20.7,N/A,,Scattered Clouds,120,2013-08-25 18:55:00
2:15 PM,94.3,57.9,29,30.12,10.0,East,12.7,27.6,N/A,,Scattered Clouds,100,2013-08-25 19:15:00
2:35 PM,91.9,57.2,31,30.12,10.0,East,9.2,21.9,N/A,,Clear,80,2013-08-25 19:35:00
2:55 PM,94.3,57.2,29,30.11,10.0,East,16.1,24.2,N/A,,Scattered Clouds,100,2013-08-25 19:55:00
3:15 PM,96.1,56.5,26,30.10,10.0,East,15.0,24.2,N/A,,Scattered Clouds,100,2013-08-25 20:15:00
3:35 PM,95.9,56.8,27,30.09,10.0,ESE,9.2,19.6,N/A,,Scattered Clouds,110,2013-08-25 20:35:00
3:55 PM,97.0,55.9,25,30.09,10.0,ESE,16.1,23.0,N/A,,Scattered Clouds,120,2013-08-25 20:55:00
4:15 PM,97.2,55.2,24,30.07,10.0,ESE,17.3,-,N/A,,Scattered Clouds,120,2013-08-25 21:15:00
4:35 PM,96.6,55.8,25,30.07,10.0,ESE,16.1,19.6,N/A,,Scattered Clouds,120,2013-08-25 21:35:00
4:55 PM,96.1,54.7,25,30.07,10.0,East,15.0,20.7,N/A,,Clear,80,2013-08-25 21:55:00
5:15 PM,97.0,54.5,24,30.06,10.0,East,15.0,23.0,N/A,,Scattered Clouds,100,2013-08-25 22:15:00
5:35 PM,96.1,54.9,25,30.06,10.0,East,13.8,20.7,N/A,,Scattered Clouds,100,2013-08-25 22:35:00
5:55 PM,94.8,54.1,25,30.05,10.0,SE,13.8,20.7,N/A,,Scattered Clouds,130,2013-08-25 22:55:00
6:15 PM,94.5,53.6,25,30.05,10.0,SE,15.0,20.7,N/A,,Scattered Clouds,130,2013-08-25 23:15:00
6:35 PM,94.3,53.6,25,30.05,10.0,SE,15.0,19.6,N/A,,Scattered Clouds,130,2013-08-25 23:35:00
6:55 PM,94.1,55.2,27,30.05,10.0,East,16.1,23.0,N/A,,Clear,100,2013-08-25 23:55:00
7:15 PM,93.2,54.9,27,30.04,10.0,East,15.0,-,N/A,,Clear,100,2013-08-26 00:15:00
7:35 PM,92.1,54.5,28,30.05,10.0,East,16.1,-,N/A,,Clear,100,2013-08-26 00:35:00
7:55 PM,91.0,54.3,29,30.05,10.0,East,11.5,18.4,N/A,,Clear,100,2013-08-26 00:55:00
8:15 PM,89.6,54.0,30,30.05,10.0,East,9.2,-,N/A,,Clear,80,2013-08-26 01:15:00
8:35 PM,88.2,55.0,32,30.06,10.0,East,13.8,-,N/A,,Clear,90,2013-08-26 01:35:00
8:55 PM,86.9,55.8,34,30.07,10.0,East,10.4,-,N/A,,Clear,90,2013-08-26 01:55:00
9:15 PM,86.0,55.6,35,30.07,10.0,East,10.4,-,N/A,,Clear,90,2013-08-26 02:15:00
9:35 PM,85.6,55.9,36,30.09,10.0,East,17.3,20.7,N/A,,Clear,100,2013-08-26 02:35:00
9:55 PM,85.5,57.0,38,30.10,10.0,ESE,13.8,-,N/A,,Clear,110,2013-08-26 02:55:00
10:15 PM,84.2,57.7,40,30.11,10.0,ESE,11.5,-,N/A,,Clear,110,2013-08-26 03:15:00
10:35 PM,83.5,58.1,42,30.12,10.0,ESE,10.4,-,N/A,,Clear,110,2013-08-26 03:35:00
10:55 PM,82.8,58.1,43,30.12,10.0,ESE,9.2,-,N/A,,Clear,110,2013-08-26 03:55:00
11:15 PM,81.5,58.1,45,30.13,10.0,ESE,6.9,-,N/A,,Clear,110,2013-08-26 04:15:00
11:35 PM,79.9,58.1,47,30.13,10.0,East,5.8,-,N/A,,Clear,100,2013-08-26 04:35:00
11:55 PM,78.3,58.1,50,30.13,10.0,ESE,5.8,-,N/A,,Clear,110,2013-08-26 04:55:00